When you browse on this site, cookies collect data to enhance your experience and personalize the content and advertising you see.
Visit our Privacy Policy to learn more. By continuing to use the site, you agree to this use of cookies and data.
  • en France
  • Liste des pays
  • À 7 jours
  • Température de l'eau
  • Carte satellitaire
  • Carte météo
  • Widgets météo
  • user-avatar
    Se connecter

    Météo par heure à Inverclyde

    Ce jour, 19 Février, Mardi

    Heure Température Précipitation Vent Pression Humidité
    00:00 +5°C° 0 mm 4 m/s 750 mmHg 86%
    01:00 +5°C° 0 mm 4 m/s 751 mmHg 87%
    02:00 +4°C° 0 mm 4 m/s 751 mmHg 89%
    03:00 +4°C° 0 mm 3 m/s 752 mmHg 91%
    04:00 +4°C° 0 mm 3 m/s 752 mmHg 91%
    05:00 +3°C° 0 mm 3 m/s 752 mmHg 92%
    06:00 +3°C° 0 mm 3 m/s 753 mmHg 93%
    07:00 +4°C° 0 mm 3 m/s 753 mmHg 91%
    08:00 +4°C° 0 mm 3 m/s 753 mmHg 90%
    09:00 +4°C° 0 mm 3 m/s 754 mmHg 89%
    10:00 +5°C° 0 mm 3 m/s 754 mmHg 84%
    11:00 +7°C° 0 mm 3 m/s 754 mmHg 79%
    12:00 +8°C° 0 mm 3 m/s 754 mmHg 74%
    13:00 +9°C° 0 mm 3 m/s 754 mmHg 72%
    14:00 +9°C° 0 mm 3 m/s 754 mmHg 70%
    15:00 +9°C° 0 mm 3 m/s 754 mmHg 69%
    16:00 +8°C° 0 mm 3 m/s 754 mmHg 73%
    17:00 +7°C° 0 mm 3 m/s 753 mmHg 77%
    18:00 +6°C° 0 mm 2 m/s 753 mmHg 81%
    19:00 +5°C° 0.2 mm 3 m/s 752 mmHg 82%
    20:00 +5°C° 0.2 mm 3 m/s 752 mmHg 82%
    21:00 +5°C° 0.2 mm 3 m/s 751 mmHg 83%
    22:00 +5°C° 0.4 mm 3 m/s 751 mmHg 85%
    23:00 +5°C° 0.4 mm 3 m/s 750 mmHg 87%

    Demain, 20 Février, Mercredi

    Heure Température Précipitation Vent Pression Humidité
    00:00 +7°C° 0.4 mm 2 m/s 749 mmHg 89%
    01:00 +7°C° 0.2 mm 3 m/s 749 mmHg 89%
    02:00 +7°C° 0.2 mm 3 m/s 748 mmHg 90%
    03:00 +8°C° 0.2 mm 3 m/s 748 mmHg 90%
    04:00 +8°C° 0.2 mm 3 m/s 747 mmHg 89%
    05:00 +8°C° 0.2 mm 4 m/s 747 mmHg 88%
    06:00 +10°C° 0.2 mm 4 m/s 747 mmHg 87%
    07:00 +9°C° 0.1 mm 5 m/s 747 mmHg 87%
    08:00 +10°C° 0.1 mm 5 m/s 747 mmHg 87%
    09:00 +10°C° 0.1 mm 5 m/s 747 mmHg 87%
    10:00 +10°C° 0.3 mm 5 m/s 747 mmHg 86%
    11:00 +10°C° 0.3 mm 6 m/s 747 mmHg 84%
    12:00 +11°C° 0.3 mm 6 m/s 748 mmHg 83%
    13:00 +10°C° 0.2 mm 6 m/s 748 mmHg 83%
    14:00 +10°C° 0.2 mm 6 m/s 749 mmHg 83%
    15:00 +10°C° 0.2 mm 6 m/s 750 mmHg 83%
    16:00 +9°C° 0 mm 6 m/s 750 mmHg 83%
    17:00 +8°C° 0 mm 6 m/s 751 mmHg 83%
    18:00 +8°C° 0 mm 6 m/s 752 mmHg 83%
    19:00 +7°C° 0 mm 5 m/s 753 mmHg 85%
    20:00 +7°C° 0 mm 5 m/s 754 mmHg 87%
    21:00 +6°C° 0 mm 4 m/s 754 mmHg 88%
    22:00 +6°C° 0 mm 4 m/s 755 mmHg 89%
    23:00 +7°C° 0 mm 3 m/s 755 mmHg 89%

    Après-demain, 21 Février, Jeudi

    Heure Température Précipitation Vent Pression Humidité
    00:00 +7°C° 0 mm 3 m/s 756 mmHg 90%
    01:00 +8°C° 0 mm 3 m/s 756 mmHg 91%
    02:00 +8°C° 0 mm 3 m/s 756 mmHg 93%
    03:00 +8°C° 0 mm 3 m/s 756 mmHg 94%
    04:00 +8°C° 0 mm 3 m/s 757 mmHg 94%
    05:00 +8°C° 0 mm 3 m/s 757 mmHg 93%
    06:00 +9°C° 0 mm 3 m/s 757 mmHg 93%
    07:00 +9°C° 0 mm 3 m/s 758 mmHg 92%
    08:00 +10°C° 0 mm 3 m/s 758 mmHg 91%
    09:00 +10°C° 0 mm 3 m/s 759 mmHg 90%
    10:00 +12°C° 0 mm 3 m/s 759 mmHg 85%
    11:00 +13°C° 0 mm 4 m/s 760 mmHg 80%
    12:00 +15°C° 0 mm 4 m/s 760 mmHg 75%
    13:00 +15°C° 0 mm 4 m/s 760 mmHg 75%
    14:00 +15°C° 0 mm 4 m/s 761 mmHg 76%
    15:00 +15°C° 0 mm 4 m/s 761 mmHg 76%
    16:00 +14°C° 0 mm 4 m/s 761 mmHg 79%
    17:00 +13°C° 0 mm 4 m/s 762 mmHg 82%
    18:00 +11°C° 0 mm 4 m/s 762 mmHg 86%
    19:00 +11°C° 0 mm 4 m/s 763 mmHg 86%
    20:00 +10°C° 0 mm 4 m/s 763 mmHg 86%
    21:00 +10°C° 0 mm 4 m/s 763 mmHg 85%
    22:00 +8°C° 0 mm 4 m/s 764 mmHg 85%
    23:00 +8°C° 0 mm 4 m/s 764 mmHg 84%

    22 Février, Vendredi

    Heure Température Précipitation Vent Pression Humidité
    00:00 +8°C° 0 mm 4 m/s 765 mmHg 83%
    01:00 +8°C° 0 mm 4 m/s 765 mmHg 83%
    02:00 +8°C° 0 mm 4 m/s 765 mmHg 83%
    03:00 +8°C° 0 mm 4 m/s 765 mmHg 83%
    04:00 +10°C° 0 mm 4 m/s 765 mmHg 83%
    05:00 +10°C° 0 mm 4 m/s 765 mmHg 83%
    06:00 +9°C° 0 mm 5 m/s 765 mmHg 84%
    07:00 +9°C° 0 mm 5 m/s 765 mmHg 83%
    08:00 +11°C° 0 mm 4 m/s 766 mmHg 82%
    09:00 +11°C° 0 mm 4 m/s 766 mmHg 81%
    10:00 +12°C° 0 mm 5 m/s 766 mmHg 79%
    11:00 +13°C° 0 mm 5 m/s 767 mmHg 76%
    12:00 +14°C° 0 mm 5 m/s 767 mmHg 74%
    13:00 +14°C° 0 mm 6 m/s 767 mmHg 69%
    14:00 +15°C° 0 mm 6 m/s 767 mmHg 63%
    15:00 +15°C° 0 mm 7 m/s 767 mmHg 58%
    16:00 +14°C° 0 mm 6 m/s 767 mmHg 61%
    17:00 +13°C° 0 mm 5 m/s 767 mmHg 63%
    18:00 +12°C° 0 mm 5 m/s 767 mmHg 65%
    19:00 +12°C° 0 mm 5 m/s 767 mmHg 65%
    20:00 +12°C° 0 mm 5 m/s 767 mmHg 65%
    21:00 +10°C° 0 mm 5 m/s 767 mmHg 64%
    22:00 +10°C° 0 mm 5 m/s 767 mmHg 65%
    23:00 +10°C° 0 mm 5 m/s 767 mmHg 66%

    23 Février, Samedi

    Heure Température Précipitation Vent Pression Humidité
    00:00 +10°C° 0 mm 5 m/s 768 mmHg 67%
    01:00 +10°C° 0 mm 5 m/s 767 mmHg 69%
    02:00 +11°C° 0 mm 4 m/s 767 mmHg 71%
    03:00 +10°C° 0 mm 4 m/s 767 mmHg 72%
    04:00 +10°C° 0 mm 4 m/s 767 mmHg 73%
    05:00 +10°C° 0 mm 3 m/s 767 mmHg 74%
    06:00 +9°C° 0 mm 3 m/s 767 mmHg 74%
    07:00 +10°C° 0 mm 4 m/s 767 mmHg 74%
    08:00 +10°C° 0 mm 4 m/s 767 mmHg 73%
    09:00 +10°C° 0 mm 4 m/s 767 mmHg 72%
    10:00 +12°C° 0 mm 4 m/s 767 mmHg 66%
    11:00 +13°C° 0 mm 5 m/s 767 mmHg 61%
    12:00 +14°C° 0 mm 6 m/s 767 mmHg 55%
    13:00 +14°C° 0 mm 6 m/s 767 mmHg 55%
    14:00 +14°C° 0 mm 6 m/s 767 mmHg 55%
    15:00 +15°C° 0 mm 6 m/s 767 mmHg 55%
    16:00 +13°C° 0 mm 5 m/s 767 mmHg 62%
    17:00 +12°C° 0 mm 4 m/s 768 mmHg 69%
    18:00 +10°C° 0 mm 3 m/s 768 mmHg 75%
    19:00 +10°C° 0 mm 3 m/s 769 mmHg 77%
    20:00 +10°C° 0 mm 2 m/s 769 mmHg 80%
    21:00 +9°C° 0 mm 2 m/s 770 mmHg 82%
    22:00 +9°C° 0 mm 2 m/s 770 mmHg 84%
    23:00 +10°C° 0 mm 1 m/s 771 mmHg 86%

    24 Février, Dimanche

    Heure Température Précipitation Vent Pression Humidité
    00:00 +10°C° 0 mm 1 m/s 771 mmHg 88%
    01:00 +10°C° 0.1 mm 1 m/s 772 mmHg 89%
    02:00 +10°C° 0.1 mm 1 m/s 772 mmHg 90%
    03:00 +9°C° 0.1 mm 0 m/s 772 mmHg 92%
    04:00 +10°C° 0 mm 1 m/s 773 mmHg 93%
    05:00 +9°C° 0 mm 1 m/s 773 mmHg 94%
    06:00 +9°C° 0 mm 1 m/s 773 mmHg 95%
    07:00 +8°C° 0.1 mm 2 m/s 774 mmHg 94%
    08:00 +9°C° 0.1 mm 2 m/s 774 mmHg 92%
    09:00 +9°C° 0.1 mm 3 m/s 774 mmHg 91%
    10:00 +10°C° 0 mm 3 m/s 774 mmHg 88%
    11:00 +10°C° 0 mm 3 m/s 774 mmHg 85%
    12:00 +12°C° 0 mm 2 m/s 774 mmHg 82%
    13:00 +12°C° 0 mm 2 m/s 774 mmHg 82%
    14:00 +12°C° 0 mm 2 m/s 774 mmHg 82%
    15:00 +12°C° 0 mm 2 m/s 774 mmHg 82%
    16:00 +12°C° 0 mm 2 m/s 774 mmHg 86%
    17:00 +11°C° 0 mm 1 m/s 774 mmHg 90%
    18:00 +10°C° 0 mm 1 m/s 774 mmHg 94%
    19:00 +10°C° 0 mm 1 m/s 775 mmHg 94%
    20:00 +9°C° 0 mm 1 m/s 775 mmHg 94%
    21:00 +9°C° 0 mm 1 m/s 775 mmHg 95%
    22:00 +8°C° 0 mm 1 m/s 775 mmHg 94%
    23:00 +8°C° 0 mm 1 m/s 775 mmHg 94%
    Voir plus